This is the latest recevied weather packets stored in our database for station/object KK7ISX. If no packets are shown the sender has not sent any weather packets the latest 10 day(s).
| Time | Temp. | Humidity | Pressure | Rain* | Wind** | Luminosity | Snow |
|---|---|---|---|---|---|---|---|
| 1777918005 | 21.11° C | 39% | 1008.4 hPa | 0 mm | - | 743 W/m² | - |
| 1777917703 | 20.56° C | 39% | 1008.3 hPa | 0 mm | - | 737 W/m² | - |
| 1777917400 | 20.56° C | 39% | 1008.3 hPa | 0 mm | - | 730 W/m² | - |
| 1777917097 | 21.11° C | 40% | 1008.4 hPa | 0 mm | - | 722 W/m² | - |
| 1777916796 | 20.56° C | 40% | 1008.5 hPa | 0 mm | - | 713 W/m² | - |
| 1777916491 | 20.56° C | 42% | 1008.5 hPa | 0 mm | - | 704 W/m² | - |
| 1777916190 | 20° C | 43% | 1008.5 hPa | 0 mm | - | 692 W/m² | - |
| 1777915887 | 20° C | 45% | 1008.5 hPa | 0 mm | - | 682 W/m² | - |
| 1777915583 | 20° C | 45% | 1008.5 hPa | 0 mm | - | 673 W/m² | - |
| 1777915280 | 20° C | 45% | 1008.7 hPa | 0 mm | - | 659 W/m² | - |
| 1777914976 | 19.44° C | 46% | 1008.6 hPa | 0 mm | - | 652 W/m² | - |
| 1777914673 | 20° C | 43% | 1008.6 hPa | 0 mm | - | 641 W/m² | - |
| 1777914368 | 18.89° C | 45% | 1008.6 hPa | 0 mm | - | 628 W/m² | - |
| 1777914067 | 18.89° C | 45% | 1008.9 hPa | 0 mm | - | 614 W/m² | - |
| 1777913762 | 18.89° C | 46% | 1008.7 hPa | 0 mm | - | 602 W/m² | - |
| 1777913459 | 18.89° C | 47% | 1008.5 hPa | 0 mm | - | 571 W/m² | - |
| 1777913155 | 18.33° C | 48% | 1008.9 hPa | 0 mm | - | 564 W/m² | - |
| 1777912852 | 18.33° C | 47% | 1008.9 hPa | 0 mm | - | 575 W/m² | - |
| 1777912548 | 17.78° C | 47% | 1009.2 hPa | 0 mm | - | 556 W/m² | - |
| 1777912245 | 17.78° C | 48% | 1008.7 hPa | 0 mm | - | 540 W/m² | - |
| 1777911941 | 17.78° C | 47% | 1008.9 hPa | 0 mm | - | 523 W/m² | - |
| 1777911637 | 17.22° C | 49% | 1008.9 hPa | 0 mm | - | 506 W/m² | - |
| 1777911333 | 17.78° C | 48% | 1008.9 hPa | 0 mm | - | 489 W/m² | - |
| 1777911031 | 17.78° C | 49% | 1009 hPa | 0 mm | - | 474 W/m² | - |
| 1777910729 | 17.22° C | 51% | 1009 hPa | 0 mm | - | 460 W/m² | - |
* Rain latest hour (hover to see other rain measurements)
** Current wind speed in m/s (hover to see current wind gust speed)